Dewpoint
60 62 62 65 65 64 64 68 66 62 63 62 60 59 59 59 60 60 61 60 58 59 58 57 59 59 56 55 55 55 58 60 62 60 61 60 64 65 68 68 67 67 67 63 64 63 62 61 62 62 61 60 60 59 59 59 59 59 59 63 65 65 64 63 63 62 61 60 59 59 58 58 59 59 58 58 57 57 57 57 57 56 56 56 56
62 62 64 67 64 65 67 68 68 63 63 64 60 60 58 59 58 58 56 57 57 58 59 59 57 58 55 55 54 55 58 58 59 59 60 60 62 65 67 68 68 68 67 67 64 64 63 62 62 62 61 61 61 59 59 59 59 59 59 63 65 65 64 64 64 62 62 62 61 60 59 59 59 58 58 58 58 58 57 56 56 56 56 56 55
66 65 67 63 62 67 66 69 69 65 66 63 62 61 60 60 58 55 56 55 54 54 53 57 58 56 55 53 53 55 55 58 57 58 58 59 60 65 66 68 67 68 67 68 67 64 64 63 63 63 62 61 61 60 59 59 59 59 59 61 64 64 65 64 63 63 61 60 60 60 59 59 59 59 58 57 57 57 57 57 56 56 56 55 55
68 66 64 63 61 63 67 68 67 66 66 62 61 60 60 57 54 56 55 56 56 56 57 56 57 54 55 53 52 54 53 55 56 56 57 59 58 63 65 65 68 68 68 68 67 67 64 64 63 62 63 61 61 61 60 59 60 59 59 61 64 63 65 64 63 63 62 61 61 60 59 59 58 58 58 58 57 57 57 56 56 56 55 56 55
67 67 65 62 66 65 64 67 67 67 66 64 62 61 60 59 57 57 57 57 58 58 54 58 58 56 55 53 53 51 52 52 56 56 56 56 57 57 64 64 64 68 67 68 68 67 67 65 64 63 63 63 61 61 61 58 60 59 59 60 63 62 63 64 64 63 63 62 61 61 60 59 59 58 58 57 58 57 57 56 56 56 55 55 55
65 65 65 66 64 65 65 66 67 67 66 65 63 61 60 60 58 56 57 57 57 59 56 56 53 55 58 56 57 57 55 51 53 55 57 58 57 58 56 61 63 64 64 68 68 68 68 67 65 64 63 63 62 62 62 59 60 60 60 60 61 62 62 63 65 64 63 63 61 61 60 59 58 58 58 58 58 57 57 56 56 56 56 55 54
64 67 65 64 63 65 66 66 67 67 67 64 63 61 60 60 59 58 58 58 59 58 57 63 64 63 64 64 61 56 58 56 55 53 54 58 59 58 58 58 60 63 62 62 67 67 67 68 67 65 64 64 63 63 62 63 61 61 60 60 60 62 62 62 64 64 63 63 62 61 61 60 59 58 58 57 58 58 57 57 56 56 55 55 55
64 65 67 65 62 64 65 66 67 66 64 64 63 62 61 61 60 59 62 57 56 58 61 62 65 64 66 65 63 62 60 57 57 55 55 57 56 58 58 59 59 59 62 65 64 64 66 67 67 68 66 64 64 64 63 63 62 62 61 60 60 60 61 61 62 65 64 63 62 62 61 60 60 59 58 58 57 57 57 57 56 56 55 55 54
65 64 66 66 64 65 65 66 67 66 66 66 63 62 62 60 64 62 63 66 63 62 63 62 64 64 64 64 64 63 62 61 57 58 53 56 56 55 57 57 58 59 62 60 65 64 66 66 67 67 67 67 65 64 63 64 62 63 62 62 61 60 61 61 61 63 65 64 63 62 61 60 60 59 58 58 58 57 57 56 56 56 55 55 55
65 66 67 65 65 65 65 66 66 66 66 66 64 63 63 61 62 65 66 64 64 63 62 63 63 62 64 65 65 65 64 62 62 60 56 54 56 55 55 57 57 57 58 60 59 62 64 65 66 66 66 66 66 65 64 64 63 63 63 62 61 62 62 61 61 62 65 64 63 63 61 61 60 59 58 58 58 58 57 57 56 56 56 55 54
65 65 66 65 64 65 65 65 66 65 65 65 65 64 64 65 64 66 64 65 66 64 62 63 62 62 60 63 66 65 65 66 64 62 60 56 54 55 52 56 57 57 59 59 58 60 65 64 63 63 64 66 66 67 65 65 64 63 63 63 62 62 63 62 61 61 63 65 64 63 62 61 60 60 59 58 58 58 58 57 56 56 55 55 54
62 62 64 63 63 64 65 65 65 65 65 63 63 63 64 65 65 63 63 64 63 63 64 63 63 63 64 63 64 66 65 66 66 64 62 61 58 57 56 55 57 58 58 58 59 57 59 64 64 63 62 64 65 66 66 65 65 65 63 63 63 62 63 64 63 61 61 63 65 64 63 62 61 60 60 59 58 59 58 58 58 57 56 55 54
57 57 59 59 61 64 64 65 64 63 63 64 64 64 65 66 67 66 64 63 63 65 65 66 64 63 64 64 64 65 65 64 64 66 64 62 61 59 59 60 58 59 59 59 58 58 58 59 60 61 61 63 64 65 65 65 65 66 65 64 63 64 63 64 64 64 62 61 63 65 64 63 62 61 60 60 59 59 58 58 57 57 57 56 55
56 58 58 56 57 58 64 63 63 64 63 64 64 65 64 65 64 64 63 62 61 63 64 64 62 60 59 60 62 65 66 66 65 62 65 66 65 65 62 58 57 61 61 59 59 58 57 58 59 58 57 57 63 64 64 65 65 66 66 66 64 64 63 63 64 64 64 63 62 64 65 63 62 61 61 60 60 59 59 58 57 57 57 57 56
56 56 56 56 56 56 58 60 63 62 62 63 63 63 63 63 63 63 63 63 63 64 64 64 62 61 61 58 59 59 62 63 63 61 63 65 65 64 61 56 56 57 59 61 61 60 56 56 57 58 59 59 59 63 63 63 63 65 66 66 66 65 65 64 64 64 65 64 64 63 65 64 63 62 62 61 60 59 59 59 57 57 57 57 56
54 52 54 55 56 56 57 58 60 59 61 62 62 61 62 62 63 62 63 60 61 62 64 64 64 62 57 59 59 59 57 59 62 64 64 63 62 61 56 54 56 56 58 59 58 61 60 57 56 59 60 60 59 58 63 64 63 64 65 64 65 66 66 65 64 65 65 65 65 64 65 65 64 63 62 62 61 60 59 59 58 58 57 57 56
54 53 51 53 54 55 56 58 58 58 58 57 56 57 59 63 62 62 61 61 61 62 62 64 64 64 62 60 58 58 58 60 59 62 63 60 62 57 56 56 55 59 57 58 59 62 61 59 61 60 61 61 61 61 60 59 63 65 65 65 65 65 66 66 66 65 65 65 65 65 66 65 65 64 63 62 61 61 60 59 58 58 57 57 57
54 53 52 53 55 55 55 55 56 57 56 56 54 53 53 54 58 59 60 62 62 61 60 62 62 62 63 63 62 59 58 60 58 56 64 65 62 59 56 56 60 60 60 61 61 63 62 63 64 63 64 62 61 60 60 61 61 63 65 65 63 64 65 65 67 66 66 65 64 64 65 66 65 64 63 62 62 61 60 60 59 58 58 58 57
55 54 53 53 53 53 54 54 54 55 54 55 54 55 52 52 55 56 57 58 60 59 59 59 62 61 61 62 62 61 60 59 57 58 56 62 64 63 61 57 60 59 58 58 60 61 62 65 64 64 64 65 62 63 62 60 59 60 61 62 63 61 61 61 65 67 67 66 65 64 64 65 66 65 64 63 62 62 61 60 60 59 59 58 58
55 53 53 53 54 54 55 55 51 51 51 51 53 53 54 54 56 57 55 57 57 58 57 58 57 59 62 61 61 60 61 61 60 57 57 54 59 64 62 63 61 60 60 59 63 64 66 64 61 62 64 61 60 61 61 60 60 60 62 61 61 61 60 59 59 60 65 67 66 65 64 64 65 65 64 63 63 62 61 61 60 59 59 59 58
54 54 52 50 50 50 50 49 48 47 45 47 51 52 55 57 56 56 57 57 57 57 55 55 54 55 58 59 60 59 60 61 59 58 54 53 54 57 59 62 62 61 60 60 60 63 65 65 64 61 62 62 64 65 60 61 63 64 64 61 60 60 60 59 57 57 57 63 67 67 66 65 65 65 65 64 63 63 62 61 61 60 59 59 59
53 49 48 46 47 47 46 47 48 45 44 45 47 51 53 54 56 57 57 56 55 55 55 54 53 54 53 53 52 52 55 57 57 53 53 56 53 52 53 52 54 59 60 58 55 54 50 59 63 62 59 56 56 59 58 59 62 63 63 59 60 59 59 58 55 56 57 58 63 66 67 65 66 65 65 65 65 63 63 62 62 61 60 60 59
50 51 50 49 50 49 49 48 49 49 47 46 48 47 50 51 52 53 53 53 53 54 54 54 53 52 50 48 48 50 50 48 50 50 50 48 47 47 48 43 42 45 53 54 56 52 51 50 45 46 47 54 58 58 58 59 59 60 61 58 59 58 58 57 55 54 55 59 61 64 66 66 66 65 65 66 65 65 64 63 63 62 61 61 60
50 49 52 51 50 49 50 50 49 50 48 48 48 47 49 49 50 51 52 52 52 51 52 51 52 50 50 48 49 49 49 49 48 48 48 47 47 44 38 37 37 37 38 53 44 45 55 51 46 44 45 44 49 54 56 57 57 59 62 58 58 58 57 56 55 54 53 56 59 61 64 66 65 66 65 65 66 65 65 65 64 64 62 62 61
49 49 51 52 50 51 50 48 49 50 49 46 48 49 48 49 50 50 51 50 51 51 50 51 50 48 47 47 45 46 47 48 48 47 46 48 47 42 42 41 42 40 36 37 40 37 38 40 41 43 45 44 45 49 52 56 57 61 58 59 58 57 56 56 55 54 53 52 54 58 61 64 66 65 66 65 65 65 65 64 62 59 59 59 60
50 50 50 50 50 51 51 50 49 50 50 51 51 49 49 45 49 51 51 51 52 51 51 51 51 50 47 47 44 44 45 47 47 47 47 46 44 45 45 43 43 38 37 35 32 31 35 35 37 39 41 43 47 52 59 54 59 58 58 58 64 56 56 56 55 53 52 51 51 54 56 59 62 64 65 65 65 63 62 59 58 58 56 56 56
49 51 49 52 52 52 51 50 50 50 50 51 50 50 50 47 49 51 51 51 50 50 49 50 49 48 50 46 47 45 43 42 43 45 43 44 45 46 44 41 40 41 40 38 37 33 33 37 39 39 39 53 50 52 51 53 54 59 58 63 59 56 55 56 55 54 52 51 50 51 52 54 55 57 58 59 58 57 58 59 58 56 56 55 55
52 51 50 52 52 52 51 51 50 50 50 49 49 48 50 48 48 51 49 49 52 52 50 50 51 51 48 48 46 44 46 43 43 44 43 47 45 44 45 44 41 39 40 39 39 39 39 37 39 41 42 45 47 51 51 51 58 57 58 59 58 57 55 55 55 54 53 52 51 50 50 50 51 52 53 55 57 57 58 59 58 56 55 55 55
52 52 50 52 53 53 51 51 51 50 50 49 49 49 49 49 50 51 51 50 50 48 49 49 50 48 48 49 44 45 44 45 47 48 46 47 47 45 45 44 44 41 39 38 39 40 41 40 38 38 38 44 49 50 51 50 55 59 54 56 57 59 57 55 54 53 53 52 50 50 49 50 50 51 53 54 55 56 56 55 57 56 55 56 55
52 53 51 52 53 53 53 52 52 51 50 49 47 48 49 48 49 48 48 50 50 50 49 47 48 47 46 46 44 44 46 47 46 48 49 47 45 45 45 45 44 43 43 41 41 42 40 44 43 40 43 43 45 50 50 49 55 50 49 51 55 57 54 54 54 52 52 52 50 50 50 49 50 51 53 53 53 54 54 54 54 55 55 55 54
53 53 52 51 53 52 53 52 52 51 50 50 49 49 49 48 48 47 49 50 47 47 48 49 48 48 46 48 45 43 45 44 46 47 48 47 46 43 42 45 46 47 45 44 42 43 44 45 45 44 44 43 41 45 46 46 47 47 49 50 46 53 54 57 53 53 53 53 52 51 50 50 49 50 51 53 53 53 54 54 54 54 55 55 54
53 53 51 51 51 51 52 51 51 51 49 49 50 49 50 49 48 47 48 47 46 47 47 46 44 47 47 47 46 43 44 41 42 44 43 45 47 44 43 42 42 45 45 45 43 42 44 43 43 43 42 45 44 44 45 42 41 48 46 46 48 51 58 52 52 53 53 52 52 51 51 50 49 49 49 50 50 52 52 52 53 54 54 54 53
53 53 51 50 49 50 50 50 50 50 50 50 50 50 49 49 48 48 46 46 44 45 45 45 44 45 42 41 42 44 46 45 44 42 40 41 44 45 45 44 43 44 43 44 42 42 44 45 45 43 43 45 41 40 40 43 46 47 49 50 51 53 52 53 53 51 51 51 51 51 50 50 49 49 48 48 49 49 50 51 52 53 53 52 52
52 51 50 51 50 50 49 49 50 49 49 49 49 49 47 49 49 48 48 45 44 43 45 44 45 44 46 44 40 43 42 40 42 38 35 37 36 34 34 40 39 42 43 41 39 39 41 42 41 40 41 42 40 40 44 46 46 45 42 44 42 41 41 45 46 49 50 51 51 50 50 50 49 49 48 47 47 48 49 49 49 49 51 51 51
50 51 50 51 50 49 48 49 48 48 48 47 49 48 48 48 46 48 47 45 44 45 45 43 40 43 44 45 44 44 45 45 44 43 43 41 39 37 40 39 40 41 41 40 42 41 41 41 43 40 41 42 44 40 40 41 42 40 39 39 38 38 39 41 40 40 47 50 50 50 50 49 49 49 48 48 47 47 47 48 48 48 48 49 50
48 50 49 49 50 49 49 49 48 48 48 48 48 47 47 47 46 46 46 45 45 45 44 43 39 41 42 44 43 44 43 43 43 42 41 41 41 39 39 39 38 37 41 43 44 44 43 43 43 40 40 40 40 39 37 37 37 37 37 37 37 38 38 37 38 39 44 50 51 50 50 50 49 48 48 47 47 47 46 46 47 47 47 48 49
51 50 49 47 49 49 50 48 48 48 48 47 47 47 48 48 47 47 46 45 46 45 44 43 46 42 42 42 40 40 42 42 43 42 41 43 38 38 38 38 36 36 39 40 40 40 40 39 39 40 40 38 37 39 37 37 36 36 36 36 36 36 41 42 42 40 51 50 51 51 50 50 49 49 48 48 48 47 46 46 46 47 48 48 48
52 54 52 49 49 49 48 48 48 48 48 47 47 46 46 48 48 47 47 46 46 44 44 44 42 42 43 40 40 40 40 41 41 42 42 42 40 41 39 38 37 38 40 40 40 40 39 38 39 39 40 38 37 38 38 38 39 38 37 38 38 38 38 40 39 39 45 54 58 57 52 49 48 48 49 49 48 47 46 46 46 47 47 47 48
53 53 55 52 49 49 48 49 49 49 49 48 48 48 47 47 47 47 47 46 46 46 44 43 41 40 39 38 40 40 39 40 40 40 41 42 41 40 40 41 39 40 41 41 39 38 38 38 38 38 38 38 40 38 36 36 36 36 38 39 39 37 42 43 45 44 46 48 47 48 52 52 51 51 49 48 48 48 47 47 47 47 47 47 47
54 50 50 54 52 50 48 48 49 50 49 48 47 47 47 47 47 47 47 47 46 45 44 41 39 39 38 37 37 37 38 38 40 40 37 36 36 36 35 35 36 36 37 36 38 37 37 38 35 36 36 37 36 38 35 36 36 36 37 41 43 44 45 46 45 43 44 45 47 48 46 48 48 49 48 48 48 48 48 47 47 47 47 46 46
56 53 51 51 54 54 50 49 49 50 50 49 48 48 48 47 47 47 47 45 45 44 42 39 39 38 37 37 37 36 40 39 38 38 39 40 33 29 32 34 35 36 37 36 36 35 36 36 36 36 34 35 36 37 36 37 38 38 41 42 42 42 41 42 41 40 39 40 41 41 42 49 53 53 54 54 54 50 49 48 50 48 47 46 45
54 53 54 55 54 54 51 50 50 51 50 49 50 45 46 46 47 46 47 45 42 41 40 39 39 37 36 37 38 43 39 39 36 35 36 38 39 36 33 34 34 34 34 35 34 34 34 33 33 34 34 34 34 38 38 38 39 40 39 41 40 40 42 43 44 44 44 43 42 41 41 44 44 43 44 46 51 55 55 52 54 53 49 45 45
55 55 54 54 55 53 52 51 50 50 50 51 41 40 40 42 46 46 44 42 41 40 39 38 38 38 37 34 36 42 40 41 38 36 36 36 36 37 37 38 38 34 33 31 32 33 32 33 33 33 33 34 35 37 37 36 38 38 38 40 40 41 40 39 39 43 44 44 45 45 46 48 48 45 44 46 50 58 57 57 51 51 48 46 45
53 54 54 53 54 54 56 52 53 52 51 42 39 38 37 37 41 46 43 42 40 39 37 36 36 36 36 36 37 38 38 38 37 38 37 36 36 36 36 36 36 37 37 36 34 33 34 33 33 34 34 34 35 37 37 39 39 39 40 41 41 40 39 39 39 40 43 45 44 44 44 47 47 47 47 47 47 49 59 50 47 46 46 45 45
53 53 53 54 53 53 53 51 51 51 47 38 37 36 36 35 34 38 39 41 39 37 37 36 35 34 34 35 36 37 36 45 37 33 33 37 37 36 37 37 36 36 34 34 35 38 36 35 35 34 34 34 34 34 38 39 40 40 40 38 39 38 38 37 38 39 42 45 44 43 42 44 44 43 44 46 47 50 56 46 46 46 46 45 45
52 52 52 53 53 52 52 51 50 50 44 38 36 35 35 34 33 34 40 39 39 36 36 36 36 36 35 35 34 35 36 37 37 36 36 36 36 38 39 38 37 38 37 35 35 35 36 37 36 36 37 37 36 37 38 39 38 37 37 36 38 37 37 37 39 40 42 43 42 42 41 41 43 43 43 44 46 50 51 49 44 45 44 44 44
49 49 51 51 51 52 52 51 51 46 46 36 34 34 34 33 33 33 39 39 38 37 36 36 36 36 36 36 36 35 35 35 36 36 36 35 34 34 33 33 33 33 34 36 39 38 38 38 37 37 37 38 38 39 39 38 39 40 40 40 40 40 40 40 39 39 39 39 41 41 39 40 43 42 43 43 45 45 55 45 45 44 44 44 43
48 48 49 50 51 51 51 51 50 44 42 33 33 33 33 33 32 35 37 38 37 36 36 36 35 36 35 36 36 36 36 36 36 33 33 33 33 32 31 32 33 34 35 36 36 36 37 36 37 36 36 39 37 39 37 35 35 37 36 37 37 38 37 36 35 36 35 37 39 38 38 38 40 40 40 41 43 44 47 51 42 44 44 43 43
47 47 47 49 49 51 50 50 51 42 36 33 32 32 32 32 31 33 36 35 35 37 37 37 36 36 36 35 35 35 35 36 35 33 34 34 33 32 32 33 34 34 34 35 35 35 35 35 34 34 33 33 33 34 35 35 36 36 34 33 33 35 35 34 34 34 35 36 36 39 38 37 39 39 40 41 42 42 43 49 48 42 42 42 42
45 46 46 46 48 50 50 50 49 38 35 33 32 32 32 31 32 33 33 34 34 34 35 36 35 34 35 42 40 33 33 33 33 33 34 36 34 33 33 33 33 33 33 33 34 35 35 35 35 34 34 34 34 34 34 35 35 36 34 32 34 34 34 34 33 33 34 35 35 37 37 37 38 39 39 40 41 42 42 42 49 46 41 41 41
45 45 44 45 47 49 49 50 42 39 34 33 33 32 33 31 34 35 32 30 31 32 32 32 34 35 33 38 40 36 35 34 33 33 33 34 34 33 33 34 32 32 32 32 33 33 34 35 35 38 38 37 38 37 36 35 35 36 36 35 34 33 33 33 33 33 33 33 35 37 34 35 37 37 38 38 38 39 41 42 47 48 48 47 44